Flag for French Guiana Weather past 2 weeks in Cayenne, French Guiana

Now
79 °F

Warm.


Feels Like: 82 °F
Forecast: 75 / 85 °F
Wind: No wind

Location: Cayenne / Rochambeau

Current Time: Sep 1, 2015 at 11:39:53 PM

Latest Report: Sep 1, 2015 at 11:00 PM


Visibility: N/A

Pressure: 29.95 "Hg

Humidity: 89%

Dew point: 75 °F

Location of CayenneLocation

Historic Weather in Cayenne — Graph

°F

Cayenne temperature yesterday

Maximum temperature yesterday: 90 °F (at 12:30 PM)
Minimum temperature yesterday: 73 °F (at 3:00 AM)
Average temperature yesterday: 81 °F

Past Weeks' High & Low Weather Summary

 TemperatureHumidityPressure
High91 °F (Aug 27, 2:00 PM)100% (Aug 17, 10:00 PM)29.98 "Hg (Aug 17, 10:00 PM)
Low72 °F (Aug 19, 4:00 AM)49% (Sep 1, 12:30 PM)29.80 "Hg (Aug 22, 3:00 PM)
Average80 °F84%29.89 "Hg
* Reported Aug 17 10:00 PM — Sep 1 10:30 PM, Cayenne, Weather by CustomWeather, © 2015

Note: Actual official high and low records may vary slightly from our data, if they occured in-between our weather recording intervals... More about our weather records

Advertising

Cayenne weather history for previous 24 hours

 ConditionsComfort  
Time TempWeatherWind HumidityBarometerVisibility
10:30 PM
Tue, Sep 1
81 °FWarm.No wind84%29.95 "HgN/A
10:00 PM81 °FWarm.1 mph84%29.95 "HgN/A
9:30 PM81 °FWarm.2 mph84%29.92 "HgN/A
9:00 PM81 °FClear.3 mph84%29.92 "Hg10 mi
8:30 PM79 °FWarm.2 mph89%29.92 "HgN/A
8:00 PM81 °FWarm.No wind84%29.89 "HgN/A
6:30 PM82 °FWarm.6 mph79%29.89 "HgN/A
6:00 PM84 °FWarm.8 mph70%29.86 "HgN/A
5:30 PM86 °FWarm.9 mph66%29.86 "HgN/A
5:00 PM88 °FWarm.10 mph59%29.86 "HgN/A
4:30 PM90 °FPassing clouds.10 mph55%29.86 "HgN/A
4:00 PM90 °FPassing clouds.8 mph55%29.86 "HgN/A
3:30 PM90 °FPassing clouds.8 mph59%29.86 "HgN/A
3:00 PM90 °FPassing clouds.9 mph55%29.89 "HgN/A
2:30 PM90 °FPartly sunny.8 mph59%29.89 "HgN/A
2:00 PM90 °FPartly sunny.6 mph59%29.89 "HgN/A
1:30 PM88 °FBroken clouds.6 mph62%29.92 "HgN/A
1:00 PM90 °FPartly sunny.2 mph52%29.92 "HgN/A
12:30 PM91 °FPassing clouds.2 mph49%29.95 "HgN/A
12:00 PM90 °FPassing clouds.2 mph52%29.95 "HgN/A
11:30 AM88 °FPassing clouds.3 mph59%29.95 "HgN/A
11:00 AM88 °FPartly sunny.3 mph62%29.95 "HgN/A
10:30 AM86 °FScattered clouds.1 mph66%29.98 "HgN/A
10:00 AM84 °FPartly sunny.3 mph74%29.98 "HgN/A
9:30 AM82 °FPartly sunny.2 mph74%29.98 "HgN/A
9:00 AM81 °FPassing clouds.1 mph79%29.98 "HgN/A
8:30 AM77 °FWarm.No wind94%29.95 "HgN/A
8:00 AM75 °FPartly sunny.No wind94%29.95 "HgN/A
7:30 AM73 °FScattered clouds.No wind94%29.95 "HgN/A
7:00 AM72 °FPartly sunny.No wind100%29.92 "HgN/A
6:30 AM72 °FPartly sunny.No wind100%29.92 "HgN/A
6:00 AM72 °FPassing clouds.No wind100%29.92 "HgN/A
5:30 AM72 °FMild.No wind100%29.92 "HgN/A
5:00 AM72 °FMild.No wind94%29.92 "HgN/A
4:30 AM72 °FMild.No wind94%29.92 "HgN/A
4:00 AM72 °FMild.No wind94%29.92 "HgN/A
3:30 AM72 °FMild.No wind100%29.92 "HgN/A
3:00 AM72 °FMild.No wind94%29.92 "HgN/A
2:30 AM72 °FMild.No wind100%29.92 "HgN/A
2:00 AM73 °FMild.No wind94%29.92 "HgN/A
12:30 AM73 °FMild.No wind94%29.95 "HgN/A
12:00 AM75 °FMild.No wind94%29.98 "HgN/A
11:30 PM
Mon, Aug 31
77 °FWarm.2 mph89%29.98 "HgN/A
11:00 PM77 °FWarm.1 mph89%29.98 "HgN/A
Weather by CustomWeather, © 2015

See weather overviewHow to use our weather pages